Location: Unspecified
(0.0000°N, 0.0000°E)
Time: 11:26:59
(UTC+00:00)

Explorer 11/Cluster Stage 4 - Pass Details

Date: 27 November 2019
Orbit: 467 x 1259 km, 28.8° (Epoch: 13 December)

Event Time Altitude Azimuth Distance (km) Brightness Sun altitude
Rises 03:42:55 0° 250° (WSW) 4,169 - -28.8°
Exits shadow 03:47:56 10° 224° (SW) 3,266 9.5 -27.7°
Reaches altitude 10° 03:48:13 10° 222° (SW) 3,234 9.5 -27.6°
Maximum altitude 03:51:15 12° 200° (SSW) 3,048 9.6 -26.9°
Drops below altitude 10° 03:54:15 10° 178° (S) 3,191 10.0 -26.3°
Sets 03:59:25 0° 150° (SSE) 4,050 11.0 -25.1°
